Theta_e
312 318 322 320 323 325 324 319 318 324 321 317 320 319 318 316 315 314 311 309 306 307 311 310 308 307 307 307 307 306 306 305 304 302 300 300 300 298 297 296 296 295 295 295 294 294 294 293 292 292 292 292 292 292 291 291 291 292 291 290 289 289 289 289 289 288 288 287 287 287 287 286 286 286 286 286 285 285 285 285 284 284 284 283 283 282
311 317 321 320 321 321 320 315 313 315 313 313 316 315 316 315 314 312 309 308 307 307 311 312 309 308 306 306 306 306 307 307 306 304 302 301 300 299 298 297 296 296 295 295 293 293 293 293 292 292 292 292 291 291 291 291 292 292 291 290 289 290 289 289 289 288 288 287 287 287 287 286 286 286 286 286 285 285 285 284 284 284 283 283 282 282
317 319 320 319 314 311 311 309 312 316 313 315 317 315 317 315 315 314 309 307 306 306 311 313 309 308 307 307 307 307 307 308 307 306 305 303 302 300 299 298 297 296 295 295 293 292 292 292 291 291 291 291 291 291 291 291 291 291 290 290 289 290 290 289 289 288 288 287 287 286 286 286 286 286 286 286 286 285 285 285 284 283 283 282 282 282
322 323 317 313 311 312 312 309 312 315 314 316 316 316 319 315 315 317 313 308 308 307 309 310 308 307 308 307 308 308 307 308 308 307 306 304 304 302 300 299 298 297 296 295 293 292 291 291 290 290 290 291 291 291 291 291 291 291 290 289 289 290 289 289 289 288 288 287 286 286 286 285 285 285 286 286 286 285 285 285 284 283 283 282 283 283
322 319 308 306 309 316 318 311 311 312 315 319 316 316 319 316 316 317 314 310 311 310 306 308 310 311 312 310 309 310 307 307 306 306 306 304 303 303 302 301 299 298 297 295 294 293 291 291 290 289 290 290 290 291 291 291 291 290 290 289 289 290 289 289 289 288 287 287 286 286 285 285 285 285 285 285 285 284 284 284 284 283 282 282 282 283
320 311 305 309 310 314 319 315 315 315 317 323 320 316 316 317 316 314 313 311 316 318 308 308 314 313 316 315 315 313 312 312 310 309 309 305 303 303 302 302 300 299 298 296 295 293 292 291 290 289 289 289 290 290 290 290 290 290 289 289 289 290 289 289 288 288 287 286 286 285 285 284 284 284 284 284 283 283 282 282 282 282 282 281 281 283
316 306 306 316 314 313 315 316 318 315 315 320 319 315 313 312 312 312 311 312 320 320 309 309 316 315 314 315 321 320 318 318 315 314 313 308 305 303 302 301 300 299 297 296 295 294 293 291 290 289 289 289 289 290 291 290 290 290 289 289 289 289 289 289 288 288 287 286 286 285 284 284 283 283 283 283 282 282 282 282 281 282 282 282 282 283
313 307 308 314 315 314 313 316 317 313 317 321 314 313 315 312 313 314 311 311 315 313 310 311 312 313 313 313 317 317 315 315 312 312 312 309 308 306 303 301 300 299 298 297 295 294 293 292 291 290 289 289 289 290 291 290 290 290 289 289 289 289 289 289 288 287 287 286 285 285 284 284 283 283 283 282 281 281 281 281 281 281 281 282 283 284
311 313 314 313 314 315 316 318 315 311 318 319 309 309 313 312 314 314 310 311 311 308 313 314 308 310 314 313 313 310 310 314 313 313 313 311 310 308 305 302 299 299 297 296 296 294 293 292 291 290 289 289 289 290 291 290 290 290 289 289 289 289 289 289 288 287 286 286 285 284 284 283 283 282 281 281 280 280 280 280 280 280 280 281 282 283
310 311 313 314 316 317 316 311 307 311 315 311 305 308 310 310 311 311 310 310 310 310 316 315 309 311 315 316 314 309 310 314 315 315 313 310 310 308 308 305 300 298 297 296 296 294 293 292 291 290 290 289 289 290 291 290 290 290 289 289 289 289 289 289 288 287 286 285 284 284 283 283 282 281 281 280 280 279 279 278 279 278 278 279 281 282
307 303 306 312 314 314 312 305 302 308 309 305 307 311 312 312 308 309 312 311 312 316 317 313 310 311 314 317 315 312 314 317 317 315 313 311 313 311 309 307 302 299 298 296 295 294 293 292 291 290 289 289 289 289 290 290 290 290 289 289 289 289 289 289 288 287 286 285 284 283 282 282 281 281 280 279 279 279 278 278 278 277 278 279 280 280
307 305 309 311 310 309 310 308 304 304 303 306 313 315 316 317 312 314 316 314 317 319 316 312 307 308 313 315 313 312 313 314 316 318 318 318 320 319 314 310 304 299 297 296 294 294 292 291 290 289 289 288 288 289 289 290 290 289 289 289 289 289 289 288 288 286 285 284 283 283 282 281 280 280 279 278 278 278 277 277 277 277 278 280 280 280
314 312 311 308 305 308 315 315 307 304 304 308 316 319 320 319 318 322 321 317 320 319 312 307 306 308 310 311 311 311 312 311 310 313 319 322 322 325 321 314 307 299 296 296 294 293 292 291 289 288 288 288 288 288 289 289 290 289 289 288 288 289 288 288 287 286 285 284 283 282 281 281 280 279 278 278 277 277 277 276 276 276 278 279 279 279
320 314 308 308 308 309 314 315 313 312 308 308 314 320 320 320 322 326 323 316 316 318 310 304 308 311 310 311 311 309 310 311 309 308 314 318 320 322 318 311 307 301 296 295 294 293 292 291 289 288 288 288 288 288 288 289 289 289 289 288 288 289 288 287 286 285 284 283 283 282 281 280 279 279 278 277 277 276 276 276 275 276 277 277 278 278
320 317 312 312 313 309 310 313 316 317 309 308 314 316 317 324 327 325 324 319 316 320 314 305 310 315 313 313 314 310 309 310 310 309 309 310 311 312 310 307 306 302 296 294 293 292 292 290 289 288 288 288 288 288 288 289 289 289 289 288 288 288 288 287 286 285 284 283 282 281 280 279 279 278 277 276 276 276 276 276 276 277 277 277 277 277
315 318 316 309 308 307 309 312 313 314 310 308 312 313 315 320 319 317 319 317 316 320 316 309 312 315 311 311 313 313 311 309 310 309 307 309 306 304 305 305 304 301 296 293 292 292 291 290 289 289 288 288 288 288 288 288 289 289 289 288 288 288 287 286 285 284 283 282 281 280 280 279 278 277 276 276 276 277 276 276 277 278 278 278 278 278
315 318 313 305 306 305 306 309 309 312 312 309 310 313 313 312 314 317 316 310 310 316 316 315 315 312 309 311 311 311 309 308 310 308 308 310 306 303 305 304 303 300 296 293 292 291 291 289 289 288 288 288 288 288 288 288 289 289 289 288 288 287 286 285 285 284 283 282 281 280 279 278 277 276 276 276 277 277 277 277 278 278 278 278 278 278
318 318 311 306 311 305 299 304 307 307 308 311 315 313 308 308 312 318 318 315 315 317 318 318 315 311 312 312 308 308 308 309 309 307 307 309 305 303 305 304 302 300 296 293 291 291 290 289 288 288 288 288 288 288 288 288 289 289 289 288 288 287 286 285 284 283 282 281 280 279 278 277 276 276 276 276 277 277 277 278 279 278 279 279 278 277
317 316 314 307 309 304 298 304 310 304 301 307 312 308 308 314 315 315 316 318 318 317 319 321 314 311 312 311 310 310 311 312 309 306 306 306 305 303 303 303 301 299 296 293 291 290 290 289 288 288 288 288 288 288 288 289 289 289 288 288 287 287 285 284 283 282 281 280 279 278 277 277 276 276 277 278 278 277 278 279 279 278 278 278 277 276
314 315 317 306 302 304 303 306 313 308 302 303 304 303 306 313 316 316 314 316 318 315 316 317 313 312 313 314 315 311 311 313 312 310 307 307 306 303 302 302 300 299 297 294 291 290 290 289 288 287 288 287 287 287 288 288 288 288 288 287 287 286 284 283 282 281 280 279 278 277 277 276 276 277 278 278 278 278 279 279 278 278 277 276 276 275
313 314 316 309 302 305 308 308 311 310 306 304 305 306 306 307 311 314 311 313 318 316 315 316 312 312 312 314 316 314 313 313 312 311 311 310 308 303 301 301 300 299 297 293 292 290 289 288 287 287 287 287 287 287 287 288 288 287 287 286 285 284 283 282 281 280 279 277 277 276 276 276 276 277 278 278 278 278 279 278 278 277 275 274 274 274
316 316 316 314 309 309 310 307 306 309 309 306 307 308 307 307 310 312 311 311 313 314 318 318 312 310 312 313 315 315 315 314 310 310 312 314 312 307 302 299 299 299 297 294 292 290 289 288 287 286 286 286 286 286 286 287 287 286 286 285 285 284 282 281 280 279 277 276 276 276 276 276 277 277 278 278 278 278 278 278 277 276 275 274 273 272
318 318 314 315 315 311 307 302 301 306 308 307 308 308 307 307 309 312 312 312 311 311 313 313 312 311 312 317 319 317 319 317 311 309 314 314 312 309 303 297 296 297 296 294 291 290 289 288 286 286 285 285 285 285 285 286 286 285 285 284 284 282 281 280 279 277 276 276 276 276 276 277 277 277 277 278 278 278 278 277 277 275 274 272 271 270
316 316 313 313 315 311 303 300 301 304 306 308 309 308 307 306 307 311 311 311 313 312 311 312 312 310 310 318 321 319 319 317 310 308 312 312 309 307 303 299 297 296 294 293 291 289 288 287 285 285 285 285 285 284 284 284 284 284 284 283 282 281 280 279 277 276 275 275 276 276 276 277 277 277 277 278 278 277 277 276 275 274 272 270 269 268
313 315 315 314 316 314 309 306 306 306 306 309 311 308 306 306 307 310 309 308 311 311 310 312 312 309 310 314 315 313 311 310 307 305 306 307 308 306 303 300 296 294 293 292 290 289 288 287 286 286 285 285 285 284 284 283 283 283 283 282 281 280 279 277 276 275 275 275 276 276 276 277 277 277 277 277 277 277 276 274 273 272 270 269 268 268
315 316 315 313 314 315 312 310 312 312 308 307 310 309 306 306 306 308 309 309 309 309 309 310 311 310 309 310 310 309 308 306 306 305 302 301 303 303 303 302 297 294 293 291 290 289 288 287 286 286 285 285 285 284 283 283 282 282 282 281 280 279 277 276 275 274 275 275 276 276 276 276 276 276 276 276 276 275 274 273 271 270 269 268 267 267
318 317 312 313 314 312 311 309 313 316 312 309 311 309 307 306 306 307 309 310 309 309 309 309 309 310 310 309 309 308 308 307 307 307 305 303 301 300 299 299 297 294 292 291 289 288 287 286 286 286 285 285 284 283 282 282 282 281 281 279 278 277 276 275 274 274 275 275 276 276 276 276 276 276 276 276 275 274 273 272 270 269 268 267 267 266
317 316 311 312 312 310 311 309 311 314 313 312 312 310 307 306 306 307 309 309 309 310 310 309 308 310 310 308 308 308 308 308 308 307 308 307 306 304 300 297 295 294 292 290 289 288 287 287 286 285 285 284 283 283 282 281 281 281 280 278 277 276 275 274 274 274 275 275 276 276 275 275 275 275 275 275 274 274 272 271 269 268 267 267 266 266
313 313 311 312 312 310 310 309 310 311 309 310 311 311 309 307 306 307 308 307 309 310 310 309 309 310 309 308 308 308 307 308 308 307 307 308 309 308 305 300 296 294 292 290 289 288 287 287 286 285 285 283 283 281 280 280 279 279 278 277 276 275 274 273 274 274 275 275 275 275 275 275 275 275 274 274 273 272 271 269 267 267 267 266 266 266
311 311 311 311 310 310 310 309 309 309 308 308 308 309 308 306 306 306 306 307 307 308 308 308 309 309 308 308 308 308 308 308 307 307 307 308 308 309 307 303 298 295 293 291 289 288 287 287 286 285 284 283 282 280 279 278 278 277 276 275 275 274 273 273 274 274 275 275 275 275 275 275 275 274 274 273 272 271 269 267 266 266 266 266 266 265
308 310 311 310 311 311 311 310 310 309 309 308 308 308 308 307 307 306 306 306 306 307 307 306 307 307 307 307 307 307 307 307 307 307 307 307 307 307 307 305 301 297 294 292 290 288 287 286 286 285 284 283 281 280 278 277 276 276 275 274 273 273 272 273 274 274 274 274 274 274 274 274 274 274 273 272 271 269 267 266 265 265 266 266 265 265
308 310 311 310 312 312 311 311 312 311 310 309 309 310 309 309 308 308 307 307 307 307 307 307 307 307 306 307 307 307 307 307 307 307 307 307 307 307 307 307 304 300 296 293 290 288 287 286 285 285 284 283 281 279 278 277 275 274 274 273 273 272 272 273 274 274 274 274 274 274 274 274 273 273 273 271 269 267 266 265 265 265 265 265 265 265
310 310 311 311 311 312 311 312 313 312 312 311 311 310 309 309 310 309 309 309 308 308 308 308 308 307 307 308 308 308 308 308 307 307 307 307 307 307 307 307 306 303 299 295 291 289 287 286 285 285 284 282 280 279 278 276 275 274 274 273 272 272 272 273 273 274 273 273 273 273 273 273 273 273 271 269 268 266 265 265 265 265 265 265 265 265
309 309 310 310 311 311 311 312 312 313 312 312 312 312 311 310 310 310 309 310 309 309 309 309 309 308 308 308 308 308 308 308 308 308 307 308 308 308 307 307 306 304 301 296 292 289 287 286 285 284 283 282 280 278 277 276 275 275 274 272 272 272 272 273 273 273 273 273 273 272 273 273 272 271 270 268 267 266 266 266 266 266 266 265 265 264
308 308 308 309 310 310 311 311 312 313 312 311 312 312 310 310 310 310 310 310 309 309 309 308 308 308 308 308 308 308 308 307 308 307 307 308 309 308 307 306 306 304 301 296 292 289 287 286 285 284 282 281 279 277 276 275 274 273 272 271 271 272 273 273 273 273 272 272 272 272 272 272 271 270 268 267 266 266 267 267 267 266 266 265 264 264
309 308 308 309 309 310 310 311 312 313 311 310 311 310 308 309 310 309 309 309 308 308 308 308 308 308 308 308 308 308 308 308 308 307 307 308 309 307 306 306 305 303 300 296 293 290 287 286 285 283 281 279 277 275 274 274 273 272 270 270 272 272 272 272 272 272 272 272 272 272 272 271 270 268 267 266 266 268 268 268 267 266 265 264 264 263
309 309 309 309 310 311 310 311 312 312 311 311 310 309 308 309 308 309 309 309 308 307 308 308 308 308 307 308 308 308 308 308 307 307 307 308 308 306 304 304 305 303 300 295 292 289 287 285 284 282 280 277 274 274 273 272 272 271 269 270 271 271 272 272 272 272 271 271 272 271 270 269 268 267 266 266 267 269 269 268 266 265 264 263 263 263
307 309 310 310 311 311 311 311 311 312 312 311 309 309 310 310 309 309 310 309 308 308 308 308 308 308 308 308 308 309 309 308 309 308 307 308 308 305 303 302 302 301 298 293 289 287 285 284 282 279 277 275 273 272 273 272 271 270 269 269 270 270 271 271 271 271 271 271 271 271 269 268 267 266 266 267 268 268 268 267 266 265 264 263 262 263
307 307 309 310 310 311 312 312 312 312 312 311 309 310 311 312 311 310 310 310 309 308 308 309 309 308 309 309 308 309 310 309 309 308 307 309 309 306 304 301 297 295 292 289 287 285 283 281 278 276 274 273 270 270 271 271 270 269 268 268 269 270 271 271 271 271 271 271 271 270 268 267 266 266 267 268 268 267 266 266 265 264 263 262 262 262
308 307 308 309 310 310 311 312 311 311 311 310 310 310 309 309 311 312 312 312 310 310 310 309 309 309 309 309 309 310 310 310 310 309 306 305 304 300 298 297 293 291 288 285 284 283 279 277 275 272 272 271 269 269 270 270 269 269 269 268 269 270 271 271 271 271 271 271 270 268 267 267 266 266 267 268 268 267 266 265 264 263 262 262 262 262
308 308 308 308 309 310 311 312 311 311 311 311 311 309 307 308 312 313 313 312 310 313 313 310 310 310 309 309 309 309 309 308 308 307 302 299 299 296 291 290 288 286 285 283 280 278 276 274 273 272 270 270 269 269 269 269 268 268 268 268 269 270 271 271 270 271 271 270 269 267 266 266 266 267 267 267 267 268 267 265 263 262 262 262 262 262
308 309 309 309 309 309 309 311 311 311 311 311 310 307 307 310 312 312 311 310 310 312 313 311 311 309 308 308 308 307 308 306 306 305 301 299 299 294 288 285 285 283 281 279 277 276 274 273 272 270 269 268 267 268 269 269 268 267 266 267 269 270 270 270 270 271 270 269 267 266 266 266 266 267 267 267 267 267 267 265 263 262 262 262 262 262
310 310 310 309 309 310 310 311 311 312 313 310 308 306 307 310 311 310 309 310 311 311 310 310 310 308 308 308 307 306 308 308 307 306 303 298 295 290 286 285 285 283 279 277 276 275 273 271 270 268 267 266 266 267 268 269 268 266 266 268 269 270 270 270 270 270 269 268 267 266 266 266 267 267 267 267 266 266 265 264 263 262 262 262 261 262
311 312 312 310 310 311 311 311 311 311 311 310 308 307 307 308 309 310 310 310 311 311 310 309 308 307 307 308 307 306 307 308 306 304 301 296 291 288 286 284 283 280 277 275 274 274 272 270 268 267 266 265 265 266 267 269 268 266 266 268 269 269 270 270 270 269 268 266 266 266 266 267 268 268 267 266 265 265 265 264 262 262 262 262 261 262
312 313 313 312 311 312 312 312 311 309 309 309 308 308 308 307 307 309 310 310 310 310 310 310 308 306 305 307 308 307 307 306 304 301 299 296 292 287 285 283 281 278 276 274 273 272 271 269 267 266 265 265 265 265 266 269 270 267 266 267 269 269 269 269 269 268 267 266 266 266 267 268 268 268 267 265 264 264 264 263 262 261 262 262 261 262
312 312 312 312 312 311 311 311 312 311 309 308 307 308 309 308 307 308 308 309 309 309 310 311 309 307 305 305 307 308 307 306 304 301 298 296 291 286 283 281 279 276 274 273 272 271 270 268 267 266 265 264 264 264 266 268 269 268 267 268 269 269 269 269 268 267 266 266 267 267 268 269 269 268 267 265 264 264 263 262 261 261 261 261 261 262
312 311 311 311 312 313 313 312 312 311 310 309 308 307 307 308 308 307 307 307 307 307 309 309 309 308 307 306 306 306 306 306 305 301 297 293 289 285 282 280 278 276 274 273 271 269 268 267 266 266 265 264 264 264 265 266 267 268 269 269 269 269 268 268 267 266 266 266 267 268 269 269 269 268 267 266 265 264 264 263 262 261 261 261 262 262
313 312 312 312 312 312 312 312 311 311 310 310 309 307 306 306 307 306 306 306 306 306 307 307 307 307 307 307 305 305 305 305 304 301 297 292 288 284 281 279 277 275 273 272 270 268 267 267 267 266 265 264 263 263 264 265 266 267 269 269 268 268 268 267 266 266 266 266 267 268 268 268 268 268 267 266 265 264 263 264 263 262 262 262 263 264
312 312 313 313 312 312 312 311 312 312 311 310 310 308 306 306 306 306 306 306 306 306 306 306 306 305 305 306 305 304 305 305 303 300 297 292 287 283 281 279 277 274 273 271 269 268 267 267 267 266 265 264 263 263 263 264 265 267 268 268 268 268 267 266 265 265 265 266 267 267 267 267 267 266 266 266 266 265 263 263 262 262 263 263 264 265
312 312 312 313 313 313 313 312 311 312 311 311 310 309 308 307 306 306 307 307 306 306 306 306 305 304 303 303 303 303 304 304 302 299 296 292 288 284 281 279 276 274 272 270 268 268 268 267 266 266 265 263 262 262 262 263 264 266 267 268 267 267 267 266 265 265 265 266 266 267 267 266 265 265 264 264 265 265 266 265 264 263 262 263 265 266
313 313 313 313 313 313 313 312 312 312 311 311 310 311 310 308 307 307 307 307 307 306 306 306 305 305 304 302 301 301 302 303 302 298 295 292 288 284 281 278 275 274 272 269 268 268 268 267 266 265 264 263 262 262 262 262 263 265 267 267 266 266 266 266 266 265 265 265 266 267 266 265 264 263 263 262 262 262 263 265 267 267 265 263 263 264
Wind_Speed
2 1 4 6 7 8 8 8 6 5 5 4 4 4 5 5 6 6 3 3 1 1 9 10 9 12 15 18 18 10 4 10 15 12 11 11 9 9 10 12 13 14 12 13 19 24 28 30 31 32 31 31 30 29 28 27 25 25 22 19 18 17 15 13 10 8 7 6 6 6 6 6 7 7 7 7 7 8 9 10 12 14 16 17 18 19
2 3 8 9 8 6 5 6 6 5 5 4 4 4 4 4 7 6 2 4 2 2 6 7 7 13 16 17 17 10 7 15 17 13 14 15 11 8 11 14 14 12 8 9 15 22 27 30 31 32 32 32 32 31 29 27 27 26 23 20 19 19 18 15 11 9 8 7 6 6 6 8 9 8 8 9 8 9 10 11 13 15 16 18 19 19
1 6 10 7 5 5 5 5 6 6 5 4 3 2 3 4 5 6 3 4 2 2 5 6 8 15 17 18 20 15 13 19 16 11 15 15 11 10 12 13 12 11 9 10 12 18 25 29 31 32 33 34 34 32 31 29 28 28 24 22 20 20 19 16 12 10 8 7 6 7 7 8 10 9 9 10 10 10 12 12 13 15 17 18 19 20
2 7 7 5 7 8 5 4 6 5 3 2 3 2 4 3 1 4 4 3 2 2 4 7 10 14 15 15 18 14 10 15 14 10 13 12 11 12 13 11 12 13 13 12 12 14 21 26 29 32 33 34 34 32 32 31 30 29 26 23 22 21 20 16 13 10 7 7 7 8 8 9 10 10 10 11 11 11 13 14 14 16 17 18 19 20
7 6 2 5 5 7 6 3 5 5 2 3 5 6 6 4 5 6 3 4 3 2 3 6 10 10 7 8 11 5 3 8 9 9 12 10 10 10 9 10 13 14 14 14 14 14 17 23 29 32 32 33 34 34 35 34 32 30 27 24 23 22 20 17 14 11 8 8 8 8 9 9 10 11 11 11 12 13 14 16 16 16 17 18 19 19
8 5 6 6 2 5 6 4 5 7 3 4 5 10 9 6 7 5 3 4 4 3 2 4 7 7 1 3 8 4 4 6 4 6 12 9 7 8 8 11 12 12 11 13 14 15 18 23 27 29 30 33 35 36 36 34 32 30 27 24 23 22 20 17 14 11 9 9 9 9 9 10 10 13 13 12 13 15 16 17 18 18 18 18 19 20
3 0 4 6 5 5 5 5 6 7 4 3 4 7 7 5 4 3 1 2 0 2 3 3 2 8 2 1 7 4 4 9 7 9 14 9 6 8 10 10 9 9 10 11 13 14 17 21 24 26 32 36 36 37 36 34 32 29 26 24 23 22 20 18 15 12 10 9 9 10 10 10 10 13 15 14 14 16 17 18 19 19 18 19 20 21
2 3 3 4 6 5 5 5 6 9 7 4 3 4 6 6 5 5 3 2 3 1 4 0 2 8 8 5 8 6 5 11 12 14 16 11 7 9 10 10 9 10 10 10 12 14 16 21 26 30 34 37 36 36 37 36 34 30 26 24 23 21 20 18 16 13 11 10 10 10 10 11 11 13 15 15 16 17 18 19 19 20 20 20 21 22
3 5 5 6 5 4 6 5 7 10 5 4 3 6 5 5 5 4 4 3 2 3 4 4 4 5 10 5 2 2 4 11 13 15 16 13 8 8 9 10 10 9 10 11 13 14 15 22 29 33 34 34 35 36 38 38 34 30 27 24 23 21 20 19 17 14 12 11 11 10 10 12 12 13 15 16 17 18 18 19 20 20 21 21 22 23
2 5 7 8 6 6 5 2 4 7 4 3 6 6 4 4 4 3 3 2 1 1 7 8 7 5 10 4 3 2 3 10 11 12 13 11 9 6 7 9 8 7 8 10 11 12 16 24 30 31 31 32 34 37 38 37 34 30 27 24 23 22 20 19 18 15 12 11 11 11 11 12 13 13 15 16 18 18 18 19 21 21 21 23 24 25
1 1 3 4 4 5 5 3 1 2 3 6 6 5 5 4 4 3 1 2 1 4 8 8 12 10 8 3 5 4 5 8 9 8 9 9 9 7 8 7 7 7 7 8 9 9 13 21 26 28 30 32 34 36 37 37 35 31 27 25 24 22 20 20 18 15 13 12 11 11 11 12 13 13 14 16 18 18 18 20 21 22 23 24 26 26
1 1 2 2 3 5 6 5 3 3 4 5 4 3 3 4 3 4 3 3 1 6 4 3 8 9 9 7 4 6 7 7 9 9 9 10 10 8 7 6 7 7 7 7 7 7 10 14 19 24 28 30 32 35 36 37 36 32 27 25 24 22 21 20 18 15 13 12 11 11 11 12 13 13 14 16 18 18 18 20 22 23 25 27 28 28
1 4 3 1 2 4 6 5 3 4 2 3 3 4 2 4 3 3 3 1 3 7 3 2 3 5 12 11 7 8 10 10 10 9 9 9 9 8 6 6 6 5 5 6 7 8 9 10 14 21 26 28 32 35 36 36 36 33 28 26 25 23 22 20 18 15 13 12 12 12 12 12 12 13 14 15 17 17 18 19 21 23 25 27 29 29
3 4 2 4 2 3 8 6 3 2 3 5 5 4 3 1 0 3 4 2 5 7 3 3 3 4 9 9 11 17 18 15 11 10 10 8 8 7 5 4 4 5 6 7 7 9 9 11 15 21 26 29 32 34 36 36 36 34 29 27 25 23 22 20 17 14 14 13 13 12 12 11 11 13 13 14 16 16 17 19 21 23 25 26 29 29
4 6 4 7 3 6 10 8 5 6 5 5 4 5 5 5 4 5 4 4 7 6 4 1 2 4 5 4 8 14 15 11 9 10 9 7 7 5 3 4 4 5 6 6 7 9 10 12 17 21 25 28 31 33 35 36 36 34 31 28 25 23 22 19 16 15 15 14 13 12 11 11 11 12 13 14 15 16 17 19 21 23 25 26 29 30
3 9 6 3 2 8 10 5 5 8 4 2 3 4 3 5 5 3 3 4 1 4 5 3 4 6 5 3 4 7 6 6 8 9 7 9 8 4 4 6 6 6 6 7 8 9 10 13 17 21 24 27 29 32 34 36 37 35 31 28 25 23 22 18 16 15 15 14 12 11 10 10 11 11 13 14 14 16 18 19 22 23 25 27 29 30
2 6 2 1 3 5 6 4 3 3 3 3 3 4 4 3 6 3 2 1 4 3 6 2 5 10 7 5 6 7 4 6 9 7 8 11 8 5 6 8 7 7 7 7 9 9 9 11 16 21 24 27 30 32 35 37 38 36 32 28 26 23 20 18 16 16 14 13 12 10 10 9 10 11 12 14 15 16 18 20 22 24 25 27 29 31
4 4 3 3 3 2 0 2 2 2 3 6 4 5 3 2 4 3 2 2 2 5 5 5 11 16 12 7 2 3 4 8 11 9 10 11 6 5 9 9 8 7 6 7 8 8 9 11 16 22 25 29 33 35 36 37 37 35 31 29 27 24 21 18 17 15 14 13 11 10 9 9 9 11 12 13 15 16 18 21 22 24 26 28 29 31
4 3 5 2 1 1 3 2 2 3 2 5 4 3 4 3 2 2 2 3 3 4 4 10 16 17 13 9 6 5 8 10 11 11 11 11 9 8 10 11 10 7 5 7 8 8 9 11 16 22 26 29 32 33 35 36 36 33 30 28 26 23 20 17 16 15 13 12 10 9 9 8 9 10 11 13 15 16 18 21 22 24 26 27 29 30
3 4 4 1 2 1 2 1 5 2 1 2 0 0 2 2 4 3 3 3 3 4 5 11 14 15 11 7 7 11 11 10 10 10 10 12 11 10 10 11 9 7 8 8 8 9 10 11 17 24 26 29 31 32 34 35 34 32 29 27 25 22 19 17 16 14 12 11 10 8 8 8 8 9 11 13 14 16 19 21 22 24 26 27 29 30
3 3 4 1 3 1 3 6 8 8 6 4 3 3 2 1 2 1 1 2 3 4 5 6 10 17 9 6 8 10 9 11 11 10 10 10 10 10 10 11 9 8 9 9 9 10 10 11 16 21 24 25 27 29 32 33 32 31 29 27 25 21 19 17 15 14 12 10 8 8 7 7 8 9 11 13 14 17 19 20 22 24 25 27 29 30
3 4 5 3 2 5 7 5 2 5 8 9 7 8 8 6 4 1 5 3 2 4 5 5 9 18 9 6 6 7 8 10 11 11 10 9 10 11 11 11 10 8 9 10 10 10 9 10 14 19 21 23 25 28 30 32 31 31 29 27 23 20 18 16 15 13 11 8 7 7 6 6 8 9 11 12 15 17 19 21 22 23 25 27 29 31
3 2 3 5 6 6 5 2 1 3 5 5 4 6 7 6 7 6 8 5 2 2 3 3 4 17 11 6 6 6 8 9 10 11 10 8 9 10 9 10 9 8 9 9 9 8 7 8 13 17 20 23 25 27 29 31 31 31 29 25 23 20 17 16 14 12 9 7 6 5 5 6 7 9 11 12 15 17 18 21 22 24 26 27 28 30
2 2 3 6 6 3 3 4 3 3 3 3 4 4 6 8 9 8 6 3 3 5 4 3 4 18 13 4 6 5 6 7 7 8 9 7 7 8 8 8 7 8 9 8 7 6 6 7 11 14 18 21 24 26 29 30 30 30 27 24 22 19 16 15 13 11 9 7 5 3 4 5 7 9 11 13 15 17 19 21 23 25 26 26 27 28
4 3 4 4 6 5 3 2 3 4 1 4 4 5 8 11 8 3 1 1 4 8 8 5 8 18 12 3 5 4 4 5 6 6 7 7 6 7 7 7 8 8 8 7 7 7 7 9 11 13 17 21 23 25 28 29 30 29 26 24 21 18 16 14 12 10 8 5 3 2 3 5 7 9 11 13 15 17 19 21 23 25 25 26 27 28
6 5 7 7 8 10 11 8 4 1 2 3 2 6 11 15 14 7 2 5 10 7 8 7 15 21 15 9 9 9 6 6 7 6 7 7 7 7 7 8 8 8 8 9 8 9 9 10 11 12 16 20 22 25 27 28 29 28 25 23 20 18 16 14 12 10 7 4 3 2 3 5 7 9 12 14 16 18 20 21 23 24 25 26 27 29
3 4 9 13 14 13 13 13 6 6 4 4 6 9 12 15 16 11 8 11 9 3 5 15 24 21 20 22 25 21 12 8 10 8 7 7 8 9 9 10 9 7 8 8 8 8 9 10 12 13 15 19 21 24 26 28 28 27 25 22 20 18 16 14 12 9 6 4 2 1 3 5 8 10 13 14 16 18 20 21 22 24 26 26 28 29
3 4 12 17 19 17 18 20 9 8 7 9 8 11 14 14 15 14 17 17 8 4 11 23 22 17 20 27 32 30 19 11 13 14 11 10 9 9 9 9 8 8 7 7 8 10 11 12 13 12 14 18 21 23 25 27 28 27 26 23 21 19 17 14 12 9 7 5 2 1 3 5 8 10 12 14 16 18 19 21 22 23 25 26 27 29
4 7 12 14 18 18 19 22 11 7 7 8 8 12 16 15 16 19 24 23 14 12 19 22 17 15 21 29 33 30 19 11 14 16 13 11 9 7 8 9 9 9 10 10 11 12 13 13 13 13 14 18 21 23 25 26 27 26 25 23 21 19 17 14 12 9 7 5 3 1 2 5 8 10 12 13 16 17 18 20 22 23 25 25 27 28
4 6 10 11 13 14 17 20 12 6 9 12 10 14 20 20 17 20 26 28 22 21 20 19 19 19 25 31 29 23 17 11 12 15 16 15 13 11 11 10 10 10 11 12 13 14 14 14 14 14 14 17 21 25 26 27 28 27 26 24 22 20 17 15 12 10 8 6 3 0 2 5 7 9 11 13 15 17 18 19 21 22 24 25 26 27
4 6 8 7 8 12 17 19 11 8 12 15 15 20 26 24 18 20 26 24 19 18 17 17 18 20 27 29 22 18 18 14 14 20 23 21 18 15 15 13 10 11 12 13 14 14 13 12 13 14 15 18 23 26 27 28 29 28 27 25 24 21 18 15 13 11 8 6 3 1 3 5 7 9 10 13 14 16 17 19 20 22 23 25 26 26
4 4 4 5 7 12 17 16 10 8 8 10 16 27 31 24 19 23 23 16 13 16 17 16 15 18 25 22 14 14 16 14 18 23 22 20 17 14 16 16 12 12 13 14 13 13 13 14 16 17 17 20 24 27 29 31 31 29 29 27 25 22 19 16 14 11 8 6 3 1 3 5 6 8 10 12 14 15 17 18 19 21 23 24 26 27
5 4 4 6 8 12 16 12 5 4 3 9 15 21 23 22 23 26 21 14 14 14 14 15 16 20 22 17 14 15 12 13 19 20 19 19 15 12 16 18 13 12 13 14 13 14 15 16 16 18 20 23 28 30 32 35 35 32 31 29 25 22 19 17 14 11 9 6 4 2 3 4 5 8 10 11 13 15 16 18 20 21 23 25 26 26
6 8 8 7 8 11 11 5 5 5 10 14 8 6 13 20 24 24 20 17 16 14 15 18 20 23 24 19 17 17 16 18 21 21 20 15 9 13 19 16 11 12 12 12 12 14 15 15 14 17 23 27 29 31 33 34 34 32 31 28 25 22 19 17 14 11 9 6 4 3 2 3 5 7 9 11 13 15 16 18 20 22 23 25 26 26
8 10 9 7 7 7 3 5 4 9 14 10 4 7 14 16 15 14 14 16 17 17 20 23 24 27 27 23 19 18 20 23 23 25 22 11 8 15 19 14 12 12 10 10 12 14 14 14 13 15 22 27 30 32 33 32 31 31 29 26 24 22 19 16 14 11 9 7 4 3 2 2 4 6 8 10 13 15 17 19 21 23 24 25 26 27
12 9 7 6 6 3 3 6 10 9 7 8 12 16 15 9 7 9 13 15 16 18 20 20 23 28 27 23 21 19 20 19 19 22 19 9 12 17 16 15 14 12 11 11 13 14 15 18 20 22 26 30 33 35 35 33 32 31 28 26 24 21 18 16 14 11 9 7 5 3 1 1 3 5 8 10 13 15 18 20 21 23 24 25 27 28
15 11 7 7 8 6 6 10 9 7 9 11 18 21 14 9 10 10 11 14 16 20 20 17 22 28 24 22 24 19 13 11 11 17 17 12 14 16 15 15 14 10 11 12 12 15 19 23 26 27 31 33 36 37 37 35 34 32 28 25 23 21 19 16 13 11 9 7 5 3 2 0 2 5 8 10 13 15 18 20 22 23 23 25 27 28
16 14 11 9 8 7 9 9 7 8 9 13 23 24 11 8 11 10 7 10 18 24 21 16 22 27 21 21 23 13 4 5 9 14 16 10 11 12 12 12 11 9 9 9 9 12 17 22 25 30 36 37 36 37 38 37 34 32 29 26 24 22 19 16 14 12 10 7 6 4 2 1 2 4 7 10 12 15 17 19 21 22 23 24 26 28
18 13 12 11 7 7 10 8 8 10 9 13 24 22 7 8 9 6 2 10 21 26 20 17 21 23 19 21 18 6 2 5 10 12 11 6 7 8 9 8 7 5 6 10 13 15 18 24 29 33 39 40 36 36 38 37 34 32 29 27 25 22 19 16 14 12 10 8 6 5 3 2 3 5 7 9 12 14 16 18 20 22 23 23 25 28
15 10 10 12 10 12 13 10 8 8 7 13 20 14 5 9 8 7 2 14 20 19 15 16 19 20 19 18 12 6 6 9 11 9 5 2 3 3 5 6 6 6 6 8 14 20 26 33 36 36 37 39 38 38 39 36 32 30 30 27 25 22 19 16 14 11 10 8 6 5 4 3 4 5 7 9 11 13 15 18 19 21 23 24 25 27
9 9 10 11 13 15 15 12 10 6 7 13 15 7 9 8 6 3 11 18 16 9 10 14 17 18 16 12 8 7 10 13 11 5 1 3 3 1 2 3 4 7 9 11 19 27 32 36 41 41 39 39 40 40 39 37 32 30 29 27 24 22 18 16 14 12 10 8 6 6 4 4 5 5 6 8 10 12 14 17 19 20 22 23 25 26
5 6 8 9 11 12 12 13 11 6 7 12 10 9 10 5 4 12 18 17 13 8 8 11 14 13 12 11 10 10 12 13 10 5 4 5 5 4 5 5 6 7 9 15 25 33 32 29 34 37 34 35 39 41 40 38 34 30 29 26 24 22 19 17 14 12 10 8 7 6 5 5 5 5 6 7 10 12 14 16 18 20 21 22 24 24
9 7 6 8 9 8 9 10 9 6 11 14 10 8 7 11 14 16 16 14 14 12 9 9 10 10 10 11 12 13 14 13 10 9 8 7 7 7 7 8 10 9 8 12 23 32 31 27 29 34 33 33 37 39 39 37 33 31 28 26 24 22 19 17 15 12 10 9 7 6 6 6 4 5 7 8 10 12 14 17 18 20 21 21 23 24
10 8 6 7 8 7 7 9 10 11 13 16 16 11 15 20 19 16 14 13 15 13 9 8 11 11 12 12 14 14 14 13 11 10 10 9 9 10 9 10 10 9 8 11 22 34 37 31 29 30 31 33 35 35 36 36 35 31 28 25 24 22 20 18 16 13 11 9 7 6 7 5 4 6 8 10 11 13 14 17 18 20 21 20 22 23
12 13 12 10 9 11 13 12 10 10 11 13 17 19 22 24 22 21 18 15 13 12 9 9 11 11 12 14 14 13 12 13 12 12 12 12 12 12 11 9 8 8 9 13 23 34 38 37 34 30 27 28 32 33 32 33 34 31 27 25 24 23 20 19 16 14 11 9 7 7 6 5 5 7 9 11 13 13 15 17 18 19 20 20 21 21
15 18 16 12 11 13 17 13 8 10 13 15 17 19 19 19 19 21 20 16 14 14 11 8 9 11 12 13 12 11 13 14 13 13 12 11 10 11 11 10 8 9 11 15 22 29 34 35 33 27 22 23 28 30 29 29 30 29 27 27 26 23 20 19 17 14 12 10 8 7 6 4 5 8 10 11 13 14 14 15 16 18 19 19 19 21
15 18 16 14 13 13 14 13 14 17 19 17 15 16 17 18 16 16 16 16 17 17 12 8 9 9 9 10 13 15 15 14 13 12 10 9 9 11 13 12 9 9 12 19 27 34 34 28 21 17 17 20 25 29 28 26 25 26 28 28 26 23 22 19 17 15 13 11 9 8 6 5 6 8 10 12 14 15 14 14 15 17 18 18 20 22
9 13 14 15 16 16 15 15 16 18 19 16 14 13 15 18 19 17 17 16 15 15 12 9 9 8 7 10 14 16 16 14 13 11 10 10 10 10 12 13 11 11 14 22 33 38 31 19 14 14 16 20 26 30 28 25 24 26 29 28 26 24 23 20 18 16 14 12 10 9 7 6 6 8 10 13 15 16 14 14 16 17 18 19 20 23
2 6 8 10 13 15 15 14 14 15 15 15 15 14 14 17 19 19 18 15 14 14 14 11 10 10 12 13 14 14 14 13 12 13 13 11 10 11 14 14 11 9 12 22 35 40 32 22 19 19 18 22 30 32 29 27 27 28 28 28 26 25 23 22 19 17 15 13 11 10 9 7 7 8 9 12 15 16 13 12 13 15 17 18 19 20
5 6 5 7 10 11 11 13 14 14 14 16 18 19 18 17 17 17 17 15 15 17 18 17 15 13 12 13 13 13 14 15 14 14 13 12 13 15 16 15 11 7 10 23 33 35 33 33 33 30 27 28 33 33 31 30 29 29 28 28 26 25 24 23 21 18 16 14 13 11 10 8 7 7 8 10 13 15 15 13 11 10 12 17 19 19
10 11 9 10 13 13 12 13 13 13 15 17 19 20 18 15 15 18 19 19 19 20 19 20 20 17 15 15 14 14 15 17 15 13 13 13 14 14 15 18 17 11 13 21 24 21 23 30 36 35 32 33 35 35 33 32 31 30 29 28 27 25 24 23 22 20 17 15 14 12 10 8 7 7 7 8 9 12 15 15 14 12 10 13 17 19
Wind_Direction
95 190 233 222 216 215 213 200 189 173 137 133 150 183 226 240 268 260 239 293 34 207 261 250 247 259 260 263 268 265 216 239 250 246 244 240 229 213 213 221 219 223 227 210 205 206 205 201 196 194 192 191 192 194 196 195 195 195 194 199 202 202 204 208 213 218 230 239 251 268 283 296 312 316 306 306 314 318 323 329 329 328 330 329 330 332
81 211 236 224 213 205 194 170 133 115 104 101 151 205 258 232 256 272 278 319 351 168 265 281 279 266 260 263 266 256 237 252 249 239 245 241 230 217 215 224 222 224 220 193 200 202 202 201 196 194 191 189 191 192 194 195 195 194 196 204 203 201 204 207 213 220 233 244 256 273 290 304 314 319 312 311 315 315 318 325 325 324 324 323 326 329
21 240 245 220 170 106 90 117 112 111 113 102 134 180 261 244 270 298 338 348 354 181 270 294 288 272 265 264 262 250 235 253 255 228 238 241 227 220 219 224 222 220 213 197 199 197 199 200 195 193 192 191 193 192 193 195 195 194 198 204 202 201 205 207 213 222 236 250 260 274 289 302 309 313 312 311 313 314 316 321 320 319 319 320 323 327
217 256 255 186 143 112 87 86 100 101 117 148 150 178 250 251 284 287 309 329 275 220 276 287 278 269 264 259 261 259 238 254 264 242 240 237 220 222 220 219 216 215 213 203 201 197 197 198 196 195 194 192 193 192 194 194 194 195 199 203 201 202 205 206 213 224 238 250 256 271 283 294 299 304 309 309 310 313 315 316 316 316 318 320 324 328
229 242 153 124 130 119 117 125 135 151 239 245 196 206 238 232 220 239 279 320 308 316 317 304 291 275 260 251 258 287 306 266 265 256 253 237 221 228 222 221 218 214 212 202 201 199 195 198 198 197 195 193 193 194 195 194 194 196 200 203 202 203 204 206 214 223 236 245 251 263 275 285 293 298 303 306 309 312 311 310 312 314 316 319 323 328
250 225 138 130 121 113 139 195 193 178 211 292 230 215 222 225 231 250 326 354 354 331 332 0 318 292 294 248 261 294 321 281 264 259 259 239 215 223 224 227 223 217 213 204 202 199 197 200 199 197 196 195 196 197 197 195 195 198 201 202 201 203 204 206 213 222 234 244 249 257 266 277 288 295 298 301 304 307 305 305 307 312 315 317 322 328
255 178 123 147 157 152 175 232 226 173 152 291 248 205 201 198 211 228 353 11 260 254 302 47 307 276 275 207 259 265 274 276 277 274 269 253 210 211 224 228 221 216 211 205 205 201 199 198 195 197 199 198 199 198 197 196 197 199 201 202 201 202 203 207 212 221 236 244 247 255 264 273 281 286 294 300 301 301 303 304 306 312 318 322 325 329
145 96 76 118 131 153 191 242 222 159 138 241 236 128 138 154 180 190 144 175 230 274 319 323 190 273 274 233 249 253 258 276 275 272 274 266 226 211 224 227 220 215 204 201 206 201 199 196 196 200 201 201 199 197 196 197 198 199 200 201 200 201 203 208 212 221 239 246 247 254 262 270 274 278 288 298 299 298 301 304 308 313 318 324 327 328
120 149 173 144 125 173 204 235 199 161 156 239 183 117 124 141 154 155 135 188 260 31 304 252 160 272 274 236 267 314 239 261 263 258 263 265 247 219 224 229 222 217 205 202 205 201 198 197 200 202 201 201 199 196 196 197 197 198 199 199 199 200 203 208 213 224 240 246 248 253 258 267 274 278 286 293 294 297 300 302 308 312 315 323 327 328
98 191 191 148 148 202 205 241 191 172 193 187 129 98 73 74 79 84 123 158 32 355 262 238 167 229 274 219 128 69 201 237 250 252 254 259 256 232 228 233 223 215 211 209 208 203 200 201 202 202 199 200 199 196 197 197 197 197 197 196 197 201 204 208 215 225 239 243 245 251 257 266 275 281 287 291 294 299 301 303 308 310 313 321 326 327
357 267 199 150 169 184 143 92 81 126 139 127 109 73 44 39 50 47 69 94 24 264 259 234 180 194 270 248 162 185 203 207 218 240 255 259 259 240 229 232 219 212 212 209 208 202 200 202 200 198 198 199 198 197 197 197 197 196 195 195 197 201 204 208 215 227 238 240 244 251 256 264 273 281 287 290 295 301 304 306 309 311 316 323 325 324
6 95 227 210 152 129 103 74 38 48 94 107 98 74 21 336 15 16 356 53 268 256 261 240 178 189 245 249 201 229 245 217 201 212 229 240 249 242 227 227 220 214 208 199 197 193 190 193 193 194 197 197 195 196 197 197 196 195 195 195 196 200 204 208 216 229 239 240 245 252 256 264 271 279 284 288 293 300 305 307 310 314 321 325 323 322
278 215 218 179 158 142 116 86 26 4 59 104 105 88 40 318 345 340 309 130 231 256 249 140 143 219 246 246 232 244 253 237 216 211 209 217 234 234 221 222 221 211 199 192 192 190 188 187 188 192 194 194 195 196 197 195 193 192 194 196 196 199 202 207 217 231 239 241 248 252 257 265 272 279 283 286 292 299 304 307 310 315 320 321 319 318
288 287 145 157 240 182 157 162 193 239 177 164 154 132 142 163 354 281 271 277 272 272 269 141 147 252 271 257 220 222 232 226 215 220 218 213 223 225 221 222 220 211 200 195 193 192 194 193 193 194 194 194 196 197 195 192 191 191 193 196 198 198 200 207 220 231 237 242 248 253 259 267 273 280 285 289 295 302 307 308 310 315 317 315 313 313
240 284 198 175 206 172 182 200 171 141 154 179 156 140 158 155 177 233 236 254 276 290 291 227 183 230 265 272 210 215 234 232 217 223 227 236 235 225 251 251 231 220 206 200 201 199 201 198 195 195 195 196 196 195 192 190 190 191 193 196 197 196 198 207 221 229 235 242 247 253 260 267 275 281 288 294 300 307 312 312 313 317 316 313 312 312
214 266 229 187 227 170 178 199 134 117 137 197 130 125 177 178 174 212 214 196 231 317 291 235 219 230 234 280 245 230 252 244 233 231 229 246 239 206 252 253 234 224 209 202 206 206 206 200 197 197 196 197 196 193 191 190 189 190 191 195 198 196 198 209 221 227 234 241 246 253 260 268 276 284 292 298 307 314 316 315 316 317 315 314 315 314
189 272 251 87 277 195 173 174 145 140 169 164 153 175 205 178 138 141 259 54 74 281 272 252 259 274 284 279 234 215 221 229 237 233 224 239 231 192 237 245 232 225 213 206 207 206 203 198 199 199 196 195 194 193 191 190 190 190 191 194 194 193 200 211 220 225 233 240 246 253 260 271 281 289 296 304 316 320 319 319 320 318 317 318 318 316
182 266 249 165 220 243 103 100 80 8 122 133 194 207 164 103 96 108 245 354 31 246 270 295 272 276 282 279 242 160 193 225 234 229 230 242 234 214 239 245 236 227 213 211 212 206 202 199 200 200 198 197 195 193 191 189 189 191 193 194 192 193 202 211 217 224 230 237 244 253 263 275 285 293 303 313 322 322 321 323 323 320 320 320 319 316
169 243 260 167 140 344 22 81 91 352 56 127 201 202 112 141 161 109 170 223 248 236 271 283 276 274 261 252 261 230 207 216 227 225 230 239 232 225 239 245 238 225 209 212 211 206 204 202 201 199 197 197 195 192 190 187 188 190 192 193 193 197 205 210 215 222 227 234 243 254 267 280 290 300 313 322 324 323 324 325 324 322 321 320 318 316
144 214 251 14 354 351 42 187 189 198 47 66 203 70 61 164 171 168 167 180 208 214 261 278 281 277 250 204 222 230 209 202 211 212 220 228 226 221 228 239 234 216 213 214 209 208 207 204 202 200 196 194 192 189 186 184 185 186 187 187 191 197 202 207 213 219 223 231 243 256 269 284 297 310 323 327 325 325 327 326 325 323 321 318 317 317
95 214 232 343 338 284 190 210 199 184 169 160 171 176 211 179 127 212 231 127 146 187 239 261 269 272 261 161 188 210 193 196 198 199 213 220 224 223 222 229 226 214 216 214 210 211 206 204 201 198 196 192 188 184 181 182 182 182 183 185 191 196 199 205 210 216 223 229 242 258 272 290 308 321 326 328 328 328 329 327 325 323 320 318 317 317
146 201 215 192 254 238 227 224 204 194 177 174 188 189 192 180 129 199 251 220 151 186 206 198 251 268 265 133 172 189 174 199 198 194 211 214 217 225 225 225 219 213 217 214 213 210 201 199 194 190 189 185 182 180 179 179 179 179 181 185 191 195 198 204 208 212 222 231 242 260 281 301 317 326 328 329 330 329 329 327 325 323 321 319 318 318
126 134 210 230 237 236 250 295 308 241 162 157 215 194 179 178 156 188 230 225 170 211 211 121 259 268 260 136 155 183 172 197 198 192 208 218 219 223 225 228 224 220 224 219 213 207 195 192 185 181 183 182 182 180 176 175 176 177 181 185 190 194 197 202 206 210 220 231 244 265 293 310 321 327 328 330 329 330 329 327 325 324 321 319 318 319
107 123 199 250 269 297 17 18 340 337 93 142 245 191 172 203 198 204 221 186 173 211 194 104 254 264 266 132 146 197 183 195 203 199 213 221 224 230 230 231 229 225 228 221 207 200 184 176 175 177 183 184 183 179 174 174 175 176 180 185 188 192 195 200 204 209 218 227 244 272 298 312 323 326 328 332 331 330 329 328 328 326 322 319 317 317
180 171 173 226 275 284 297 322 344 339 266 210 235 184 192 218 214 222 354 106 235 219 170 152 245 256 263 102 129 208 197 210 223 213 221 224 222 232 235 234 230 224 224 216 198 188 178 176 180 185 187 186 183 178 174 172 173 175 179 184 188 189 192 199 203 207 214 219 233 275 302 317 325 330 334 336 333 332 331 328 327 325 322 319 317 316
180 178 176 196 231 240 246 246 227 200 208 222 227 184 198 212 203 197 219 220 234 216 147 181 244 254 265 281 269 247 211 228 242 219 220 233 231 233 234 232 228 219 217 211 196 187 185 186 189 190 188 186 183 178 173 171 172 175 178 182 187 189 190 197 201 201 205 207 218 275 313 324 330 336 339 337 334 332 328 325 324 323 321 319 318 318
162 193 197 209 224 229 244 251 214 131 154 209 214 201 204 212 205 201 229 232 224 172 168 225 241 256 274 280 274 264 246 254 269 256 240 240 234 232 235 232 226 217 215 208 193 187 188 191 194 191 187 185 182 177 173 170 171 173 176 179 184 189 192 195 197 195 193 192 205 282 317 327 336 341 340 337 334 329 325 323 323 321 320 320 320 320
117 227 217 220 230 231 244 254 228 147 195 213 201 213 219 214 201 203 228 232 200 148 235 240 242 257 270 270 269 269 266 269 277 274 268 258 243 231 232 231 220 218 215 200 194 194 194 195 194 189 185 182 179 175 171 171 173 174 177 179 182 188 192 192 190 186 181 179 186 271 317 335 343 344 339 334 329 326 324 322 320 319 320 321 322 323
153 235 230 227 239 240 248 257 235 172 225 227 197 222 232 220 200 207 231 233 209 212 242 250 251 254 259 260 262 269 275 275 274 276 273 266 255 236 233 227 213 213 210 202 203 201 198 198 191 185 184 179 175 173 169 169 171 173 176 179 183 189 191 187 183 178 175 173 174 234 331 348 348 343 337 331 326 323 322 320 318 320 323 324 325 324
161 237 241 240 254 254 254 258 241 194 245 253 239 242 246 239 217 214 235 239 229 232 246 259 264 262 259 259 262 273 282 282 281 284 279 271 263 255 249 236 218 214 210 205 208 206 200 197 189 182 180 177 176 174 169 168 170 172 176 179 184 189 187 183 178 173 171 169 169 194 358 357 350 344 335 327 324 321 319 319 320 323 326 327 326 324
195 224 239 251 271 262 258 263 256 223 239 254 260 259 255 251 239 231 241 245 244 249 251 253 261 262 258 260 269 281 284 286 284 278 275 273 269 265 264 253 228 216 215 210 210 206 197 191 185 181 181 182 180 176 170 169 170 173 176 179 184 187 183 178 175 169 166 165 160 117 15 2 350 341 331 324 322 321 319 321 323 326 328 327 326 325
201 216 238 256 267 258 259 268 261 230 236 253 256 256 255 255 250 245 245 241 240 251 254 250 248 251 257 264 273 270 270 273 270 267 267 269 267 263 266 263 243 219 217 215 208 198 192 188 185 186 186 183 180 176 173 171 170 172 176 180 183 182 177 174 170 164 163 161 145 92 24 5 348 336 328 323 322 321 323 325 327 329 329 328 327 327
188 209 233 235 246 255 256 255 221 153 219 250 245 248 254 257 254 254 257 250 234 238 250 251 248 252 261 268 267 261 258 256 258 260 261 265 267 263 261 260 247 227 220 214 202 194 192 191 190 189 186 181 180 179 176 172 171 174 177 179 179 176 173 170 165 161 160 155 135 96 35 5 343 329 325 325 324 325 327 329 330 332 331 330 329 326
196 215 231 226 234 250 247 217 133 159 232 245 236 218 239 250 255 258 263 257 242 232 239 249 257 263 266 265 263 264 262 258 260 262 261 259 261 263 261 256 242 234 227 210 197 195 194 192 191 186 183 181 180 177 174 173 173 175 176 175 173 171 169 165 161 160 155 147 135 107 47 0 334 326 325 328 331 331 332 332 334 335 335 332 329 325
211 216 225 223 235 247 191 136 176 220 231 247 274 245 241 247 254 261 263 255 246 240 243 249 257 262 263 264 265 263 262 264 267 269 268 250 223 252 262 259 242 233 225 205 195 197 194 185 181 179 178 178 175 170 170 170 171 170 171 172 170 168 166 162 158 157 152 145 138 114 61 347 328 326 328 334 337 336 335 336 337 337 337 333 327 323
220 220 222 221 232 236 142 192 224 241 265 303 293 268 254 238 233 254 262 255 247 244 244 246 253 258 262 266 265 260 260 268 273 275 273 240 214 238 250 251 248 232 215 206 195 192 189 182 180 178 175 172 168 166 166 167 167 166 167 169 168 164 163 161 158 155 151 147 138 123 115 317 330 333 335 340 341 339 338 338 338 339 337 331 326 324
219 222 223 222 222 220 223 226 237 278 299 289 272 262 249 219 216 235 255 260 257 250 243 239 248 255 258 260 262 263 267 280 283 279 274 240 218 229 235 241 247 229 210 207 195 189 187 182 178 173 167 163 163 164 164 163 165 164 163 165 167 163 161 160 158 156 153 147 142 144 163 232 344 347 347 346 343 340 340 339 338 338 336 330 325 322
215 217 217 222 216 214 234 241 240 253 252 247 252 253 236 190 202 206 224 259 262 255 244 231 241 250 252 254 259 264 282 290 273 273 276 251 216 221 229 236 241 225 204 190 172 171 171 168 166 163 160 158 159 162 163 163 164 161 160 163 165 163 162 161 160 158 153 148 153 159 157 128 22 3 356 350 345 342 340 339 338 336 334 329 322 318
215 215 218 230 227 216 233 238 229 234 231 234 248 252 219 155 170 154 171 259 258 253 243 227 234 243 244 247 251 231 144 257 259 264 272 250 203 213 222 223 224 206 177 164 160 156 155 154 153 155 156 154 156 161 164 164 162 160 160 163 164 164 164 164 162 157 150 152 162 161 146 110 48 21 3 350 344 343 341 339 337 335 333 328 322 319
212 210 216 228 227 224 231 233 233 241 239 240 249 250 179 143 127 93 287 260 256 248 228 214 223 231 232 236 236 192 184 230 248 258 262 195 167 199 203 195 185 165 149 151 153 150 149 149 148 151 156 157 158 162 164 163 161 160 160 162 163 165 165 162 157 151 150 159 165 156 135 98 60 27 5 350 344 343 343 340 337 334 332 328 325 322
205 205 212 219 223 225 227 232 241 241 236 245 246 203 135 119 101 151 240 251 252 228 190 195 213 221 221 216 202 194 212 224 234 246 151 138 147 136 138 136 138 145 145 147 148 146 148 151 154 157 160 160 159 161 164 163 160 159 160 161 164 166 163 158 152 148 155 165 162 149 125 89 64 27 4 354 347 344 344 343 339 334 332 329 326 323
182 195 212 213 221 225 223 232 245 238 224 235 221 156 143 155 213 226 237 252 257 228 191 198 210 212 207 197 193 208 223 224 222 213 184 181 177 158 145 132 125 127 133 143 148 148 147 151 153 153 155 159 160 162 165 163 159 158 160 162 165 165 159 154 150 150 159 165 155 139 113 84 61 23 4 358 354 348 345 345 342 337 336 332 328 325
176 182 207 199 206 223 224 226 236 233 215 203 175 143 177 212 226 236 245 261 264 247 223 216 218 210 197 194 202 215 221 221 216 210 206 197 175 167 170 163 155 147 136 143 153 154 151 149 150 151 155 160 162 163 165 162 158 158 161 163 164 160 154 151 150 152 162 162 148 129 103 80 54 21 8 3 0 354 348 346 343 341 340 335 331 328
175 182 211 200 191 206 221 216 218 232 220 186 169 184 209 213 224 239 243 249 256 252 234 223 225 213 193 195 208 215 218 221 217 207 203 196 185 182 180 171 163 158 148 153 161 159 153 149 149 151 155 161 163 165 167 164 158 157 161 162 161 157 152 149 148 155 161 155 140 122 99 77 47 22 13 7 5 359 352 347 343 341 342 339 334 329
186 196 222 226 203 206 227 227 217 231 228 191 190 212 218 215 223 234 237 240 248 249 235 223 226 215 196 200 210 210 215 222 216 208 208 203 192 185 180 172 161 152 147 152 160 160 155 151 150 148 151 161 165 167 169 167 160 156 157 160 159 155 151 149 150 156 157 149 135 117 97 79 47 25 15 11 8 2 354 347 341 339 340 339 335 328
204 210 225 235 225 224 236 236 215 223 228 213 211 223 227 223 223 230 238 241 243 246 238 217 222 220 203 204 211 214 220 221 214 214 214 204 190 182 175 167 153 145 148 152 158 160 154 149 148 144 143 156 166 168 169 168 162 156 156 158 157 152 148 149 152 155 153 145 133 117 99 78 49 29 17 11 8 4 357 348 339 336 337 336 333 328
218 219 227 235 232 232 236 225 215 224 229 222 221 230 237 239 233 230 235 237 240 246 241 221 226 224 198 196 210 220 227 222 213 215 209 190 188 186 174 167 161 159 162 161 161 159 154 148 147 144 140 151 165 169 169 167 163 159 157 156 154 150 149 151 153 153 150 141 130 117 99 72 44 26 15 9 6 5 3 357 347 340 337 335 331 326
216 211 222 232 231 234 239 231 226 235 235 228 226 226 231 240 241 236 236 239 244 252 249 236 231 224 203 203 212 221 230 224 211 208 201 192 192 186 177 176 170 162 163 161 159 159 156 151 151 149 144 151 163 168 168 166 164 162 158 155 152 150 150 152 154 152 145 136 124 111 94 72 46 26 13 5 2 2 3 5 359 348 340 338 333 324
266 208 224 242 239 241 249 246 246 255 253 245 243 235 228 235 240 241 243 246 250 257 257 246 231 222 220 222 222 222 227 226 213 202 198 195 188 182 185 184 171 155 158 162 163 164 163 157 152 148 146 153 162 166 166 165 165 163 159 155 153 153 152 153 154 149 141 132 122 109 94 77 54 35 18 6 1 360 0 3 1 348 341 342 340 331
276 255 251 262 253 246 245 239 237 247 252 249 247 242 236 235 240 244 247 245 240 242 245 244 240 234 228 230 230 221 221 228 221 202 196 197 191 189 187 177 164 152 154 160 164 166 165 161 157 152 150 155 161 163 164 165 165 163 160 156 155 155 156 155 152 145 138 131 121 110 99 83 65 47 28 14 5 1 359 1 4 358 345 340 338 337
241 244 237 245 251 247 243 238 233 240 250 251 250 250 246 237 233 238 241 240 237 237 238 240 242 241 237 236 231 219 221 232 224 199 198 204 195 186 181 173 170 167 157 155 159 162 163 162 158 153 152 157 162 163 163 164 164 162 161 159 157 157 158 157 152 145 138 131 122 114 106 90 73 57 40 29 16 6 2 359 1 11 11 352 342 342